Device Time, Air Fuel Ratio(Commanded)(:1),Air Fuel Ratio(Measured)(:1),Ambient air temp(°F),Barometric pressure (from vehicle)(psi),Catalyst Temperature (Bank 1 Sensor 1)(°F),Engine Coolant Temperature(°F),Engine Load(%),Engine Load(Absolute)(%),Engine RPM(rpm),Fuel Rail Pressure(psi),Fuel Trim Bank 1 Long Term(%),Fuel Trim Bank 1 Short Term(%),Intake Air Temperature(°F),Intake Manifold Pressure(psi),Throttle Position(Manifold)(%),Timing Advance(°)
04-Jun-2023 15:10:29.592,9.76000023,-,134.6,14.5037738,1567.4,204.8,32.15686417,70.58823395,2844,1154.50039448,-5.46875,-0.78125,134.6,13.48850963,25.49019623,6
04-Jun-2023 15:10:29.685,9.76000023,-,134.6,14.5037738,1567.4,204.8,23.92156792,50.98039246,2844,996.40926006,-5.46875,2.34375,134.6,10.44271714,25.49019623,6
04-Jun-2023 15:10:29.784,9.76000023,-,134.6,14.5037738,1567.4,204.8,23.92156792,29.01960754,2836.5,1045.72209098,-5.46875,2.34375,134.6,6.38166047,16.86274529,-10
04-Jun-2023 15:10:29.886,9.76000023,-,134.6,14.5037738,1567.4,204.8,9.4117651,17.64705849,2836.5,1086.33265762,-5.46875,3.90625,134.6,4.06105666,16.86274529,-9
04-Jun-2023 15:10:29.984,9.76000023,-,134.6,14.5037738,1567.4,204.8,6.66666651,17.64705849,2616,1086.33265762,-5.46875,3.90625,134.6,4.06105666,16.86274529,-9
04-Jun-2023 15:10:30.084,9.76000023,-,134.6,14.5037738,1567.4,204.8,6.66666651,17.64705849,2616,1086.33265762,-5.46875,3.90625,134.6,4.06105666,16.86274529,-9
04-Jun-2023 15:10:30.185,9.76000023,-,134.6,14.5037738,1567.4,204.8,6.66666651,17.64705849,2616,1032.66869456,-4.6875,6.25,134.6,4.06105666,14.50980377,7.5
04-Jun-2023 15:10:30.285,9.76000023,-,134.6,14.5037738,1567.4,204.8,9.8039217,13.33333302,2431,1032.66869456,-4.6875,6.25,136.4,4.78624535,14.50980377,18
04-Jun-2023 15:10:30.385,9.76000023,-,134.6,14.5037738,1565.06002197,204.8,9.8039217,54.11764526,2431,1051.5236005,-4.6875,6.25,136.4,4.78624535,22.35294151,18
04-Jun-2023 15:10:30.485,9.76000023,-,134.6,14.5037738,1565.06002197,204.8,30.98039246,54.11764526,2212,1051.5236005,-4.6875,3.125,136.4,11.74805678,27.84313774,22.5
04-Jun-2023 15:10:30.584,9.76000023,-,134.6,14.5037738,1565.06002197,204.8,36.07843018,76.47058868,1803.5,1203.8132254,-5.46875,3.125,136.4,14.35873606,27.84313774,18.5
04-Jun-2023 15:10:30.685,9.76000023,-,134.6,14.5037738,1565.06002197,204.8,36.07843018,80.39215851,1893,1296.63737772,-5.46875,3.125,136.4,14.64881154,27.84313774,18.5
04-Jun-2023 15:10:30.784,9.76000023,-,134.6,14.5037738,1565.06002197,204.8,37.25490189,80.39215851,1893,1296.63737772,-5.46875,0,136.4,14.64881154,29.01960754,24
04-Jun-2023 15:10:30.886,9.76000023,-,134.6,14.5037738,1565.06002197,204.8,39.2156868,83.52941132,1893,1406.8660586,-5.46875,0,136.4,15.37400023,29.80392075,23
04-Jun-2023 15:10:30.986,9.63609409,-,134.6,14.5037738,1565.06002197,204.8,39.2156868,85.09803772,1893,1493.8887014,-5.46875,0,136.4,15.6640757,29.80392075,23
04-Jun-2023 15:10:31.084,9.63609409,-,134.6,14.5037738,1565.06002197,204.8,39.60784149,85.09803772,1900.5,1493.8887014,-5.46875,0,136.4,15.6640757,29.01960754,24
04-Jun-2023 15:10:31.184,9.74332047,-,134.6,14.5037738,1565.06002197,204.8,40.39215851,86.66666412,1996.5,1519.99549424,-5.46875,1.5625,136.4,15.80911344,29.01960754,24
04-Jun-2023 15:10:31.286,9.757617,-,134.6,14.5037738,1565.06002197,204.8,40.39215851,87.45098114,2096,1546.10228708,-5.46875,1.5625,136.4,15.80911344,29.01960754,24
04-Jun-2023 15:10:31.386,9.757617,-,134.6,14.5037738,1565.06002197,204.8,41.17647171,87.45098114,2096,1546.10228708,-5.46875,2.34375,136.4,15.80911344,27.84313774,24.5
04-Jun-2023 15:10:31.486,9.76000023,-,134.6,14.5037738,1565.06002197,204.8,43.13725662,89.01960754,2189.5,1602.6670049,-5.46875,2.34375,136.4,16.09918892,27.84313774,24.5
04-Jun-2023 15:10:31.586,9.76000023,-,134.6,14.5037738,1565.06002197,204.8,43.13725662,89.01960754,2189.5,1853.58229164,-5.46875,1.5625,136.4,16.09918892,28.62745094,21
04-Jun-2023 15:10:31.684,9.47882843,-,134.6,14.5037738,1563.07995605,204.8,48.62745285,101.5686264,2189.5,1853.58229164,-5.46875,0.78125,136.4,18.12971725,28.62745094,21
04-Jun-2023 15:10:31.784,9.35492229,-,134.6,14.5037738,1563.07995605,204.8,48.62745285,105.09803772,2307.5,1898.54399042,-5.46875,0.78125,136.4,18.41979273,32.15686417,18
04-Jun-2023 15:10:31.884,9.35492229,-,134.6,14.5037738,1563.07995605,204.8,48.62745285,105.09803772,2307.5,1898.54399042,-5.46875,0.78125,136.4,18.41979273,32.15686417,18
04-Jun-2023 15:10:31.986,9.35492229,-,134.6,14.5037738,1563.07995605,204.8,49.41176605,105.09803772,2307.5,1898.54399042,-5.46875,0.78125,136.4,18.41979273,32.15686417,18
04-Jun-2023 15:10:32.084,9.0856638,-,134.6,14.5037738,1563.07995605,204.8,49.41176605,97.2549057,2307.5,1817.32285714,-5.46875,0.78125,136.4,18.41979273,30.58823586,9
04-Jun-2023 15:10:32.184,9.0237112,-,134.6,14.5037738,1563.07995605,204.8,45.88235474,97.2549057,2529.5,1791.2160643,-5.46875,0.78125,136.4,17.40452856,27.84313774,22.5
04-Jun-2023 15:10:32.284,9.0237112,-,134.6,14.5037738,1563.07995605,204.8,43.13725662,91.37255096,2529.5,1791.2160643,-5.46875,2.34375,136.4,16.67933987,26.66666603,27.5
04-Jun-2023 15:10:32.384,8.95699215,-,134.6,14.5037738,1563.07995605,204.8,43.13725662,88.23529053,2632,1749.15512028,-5.46875,2.34375,136.4,16.24422666,26.66666603,27.5
04-Jun-2023 15:10:32.484,8.86168003,-,134.6,14.5037738,1563.07995605,204.8,41.5686264,87.05882263,2632,1705.64379888,-5.46875,3.125,136.4,16.24422666,26.66666603,30
04-Jun-2023 15:10:32.584,8.80925751,-,134.6,14.5037738,1563.07995605,204.8,41.17647171,87.05882263,2734,1808.62059286,-5.46875,3.125,136.4,15.95415118,26.66666603,30
04-Jun-2023 15:10:32.683,8.80925751,-,134.6,14.5037738,1563.07995605,204.8,50.58823395,100,2734,1808.62059286,-5.46875,3.125,136.4,18.7098682,47.05882263,26
04-Jun-2023 15:10:32.784,8.72824192,-,134.6,14.5037738,1563.07995605,204.8,56.86274338,114.50980377,2903,2066.7877665,-5.46875,3.125,136.4,20.88543427,47.05882263,26
04-Jun-2023 15:10:32.884,8.72824192,-,134.6,14.5037738,1555.16002197,204.8,56.86274338,114.50980377,2903,2255.3368259,-5.46875,3.125,136.4,20.88543427,47.05882263,20
04-Jun-2023 15:10:32.984,8.60671902,-,134.6,14.5037738,1555.16002197,204.8,61.5686264,129.01960754,3031.5,2255.3368259,-5.46875,3.125,136.4,22.04573618,57.64706039,15.5
04-Jun-2023 15:10:33.084,8.54238319,-,134.6,14.5037738,1555.16002197,204.8,63.13725662,135.29411316,3031.5,2400.3745639,-5.46875,3.125,136.4,22.77092487,57.64706039,15.5
04-Jun-2023 15:10:33.184,8.47566414,-,134.6,14.5037738,1555.16002197,204.8,66.27451324,144.3137207,3240.5,2575.87022688,-5.46875,3.125,136.4,23.64115129,78.8235321,15
04-Jun-2023 15:10:33.284,8.42324257,-,134.6,14.5037738,1555.16002197,204.8,66.27451324,150.98039246,3434.5,2570.06871736,-5.46875,3.90625,136.4,24.51137772,78.8235321,13.5
04-Jun-2023 15:10:33.385,8.351758,-,134.6,14.5037738,1555.16002197,204.8,67.05882263,157.25489807,3434.5,2617.9311709,-5.46875,3.125,136.4,24.51137772,83.92156982,10.5
04-Jun-2023 15:10:33.486,8.351758,-,134.6,14.5037738,1555.16002197,204.8,72.54901886,157.25489807,3434.5,2636.78607684,-5.46875,2.34375,136.4,25.81671736,83.92156982,5
04-Jun-2023 15:10:33.585,8.26835918,-,134.6,14.5037738,1555.16002197,204.8,78.03921509,173.72549438,3611.5,2636.78607684,-5.46875,0.78125,136.4,27.8472457,83.92156982,3
04-Jun-2023 15:10:33.684,8.22546864,-,134.6,14.5037738,1555.16002197,204.8,78.03921509,173.72549438,3611.5,2661.4424923,-5.46875,0.78125,136.4,27.8472457,83.92156982,3
04-Jun-2023 15:10:33.785,8.22546864,-,134.6,14.5037738,1555.16002197,204.8,78.03921509,187.05882263,3611.5,2661.4424923,-5.46875,0.78125,136.4,27.8472457,83.92156982,3
04-Jun-2023 15:10:33.884,8.22546864,-,134.6,14.5037738,1555.16002197,204.8,78.03921509,187.05882263,3611.5,2661.4424923,-5.46875,0.78125,136.4,30.1678495,83.92156982,3
04-Jun-2023 15:10:33.984,8.22546864,-,134.6,14.5037738,1555.16002197,204.8,84.31372833,187.05882263,4061,2661.4424923,-5.46875,-2.34375,136.4,30.1678495,83.92156982,3
04-Jun-2023 15:10:34.084,8.11347675,-,134.6,14.5037738,1555.16002197,204.8,86.27451324,198.8235321,4311,2699.15230418,-5.46875,-2.34375,136.4,32.19837784,83.92156982,3
04-Jun-2023 15:10:34.185,8.11347675,-,134.6,14.5037738,1580.9,204.8,86.27451324,198.8235321,4311,2728.15985178,-5.46875,-2.34375,136.4,32.19837784,83.92156982,3.5
04-Jun-2023 15:10:34.284,8.08250046,-,134.6,14.5037738,1580.9,204.8,85.49019623,198.43136597,4311,2728.15985178,-5.46875,-1.5625,136.4,32.92356653,83.92156982,4.5
04-Jun-2023 15:10:34.384,8.0705862,-,134.6,14.5037738,1580.9,204.8,85.49019623,199.21568298,4544.5,2726.7094744,-5.46875,-1.5625,136.4,33.35867974,83.92156982,4.5
04-Jun-2023 15:10:34.484,8.05628872,-,134.6,14.5037738,1580.9,204.8,86.27451324,199.21568298,4544.5,2728.15985178,-5.46875,-0.78125,136.4,33.50371748,83.92156982,4.5
04-Jun-2023 15:10:34.585,8.05628872,-,134.6,14.5037738,1580.9,204.8,85.88235474,199.21568298,4779,2729.61022916,-5.46875,-1.5625,136.4,33.50371748,83.92156982,3.5
04-Jun-2023 15:10:34.684,8.04437542,-,134.6,14.5037738,1580.9,204.8,87.05882263,200.39215088,4779,2729.61022916,-5.46875,-1.5625,136.4,33.79379295,83.92156982,3
04-Jun-2023 15:10:34.786,8.03722668,-,134.6,14.5037738,1580.9,204.8,88.23529053,202.35293579,4916.5,2752.81626724,-5.46875,-2.34375,136.4,33.93883069,83.92156982,3.5
04-Jun-2023 15:10:34.884,8.03007793,-,134.6,14.5037738,1580.9,204.8,88.23529053,205.09803772,4916.5,2751.36588986,-5.46875,-2.34375,136.4,33.93883069,83.92156982,3.5
04-Jun-2023 15:10:34.984,8.02531242,-,134.6,14.5037738,1580.9,204.8,87.84313965,205.09803772,5131.5,2781.82381484,-5.46875,-4.6875,136.4,33.93883069,83.92156982,9
04-Jun-2023 15:10:35.084,8.02531242,-,134.6,14.5037738,1580.9,204.8,86.27451324,204.3137207,5131.5,2781.82381484,-5.46875,-7.03125,136.4,33.79379295,83.92156982,9
04-Jun-2023 15:10:35.183,8.02293015,-,134.6,14.5037738,1580.9,204.8,86.27451324,205.09803772,5307,2805.02985292,-5.46875,-7.8125,136.4,34.08386843,83.92156982,9
04-Jun-2023 15:10:35.284,8.01816368,-,134.6,14.5037738,1580.9,204.8,85.88235474,206.66667175,5307,2816.63287196,-5.46875,-7.8125,136.4,34.37394391,83.92156982,9
04-Jun-2023 15:10:35.384,8.01816368,-,134.6,14.5037738,1580.9,204.8,85.88235474,207.45097351,5505.5,2831.13664576,-5.46875,-7.8125,136.4,34.22890617,83.92156982,9
04-Jun-2023 15:10:35.484,8.01339817,-,134.6,14.5037738,1580.9,204.8,85.88235474,207.45097351,5505.5,2849.9915517,-5.46875,-9.375,136.4,34.22890617,83.92156982,9.5
04-Jun-2023 15:10:35.584,8.01339817,-,134.6,14.5037738,1580.9,204.8,85.88235474,207.45097351,5719.5,2849.9915517,-5.46875,-9.375,136.4,33.79379295,83.92156982,9.5
04-Jun-2023 15:10:35.684,8.01339817,-,134.6,14.5037738,1580.9,204.8,85.88235474,207.45097351,5719.5,2849.9915517,-5.46875,-9.375,136.4,33.79379295,83.92156982,9.5
04-Jun-2023 15:10:35.784,8.01339817,-,134.6,14.5037738,1580.9,204.8,91.76470947,207.45097351,5719.5,2849.9915517,-5.46875,-11.71875,136.4,33.79379295,83.92156982,11
04-Jun-2023 15:10:35.886,8.01101589,-,134.6,14.5037738,1580.9,204.8,89.41176605,223.52941895,5939,2818.08324934,-5.46875,-11.71875,136.4,34.66401938,83.92156982,11
04-Jun-2023 15:10:35.984,8.01101589,-,134.6,14.5037738,1580.9,204.8,69.01960754,178.43136597,6513,2865.94570288,-5.46875,-11.71875,136.4,28.86250986,41.5686264,7.5
04-Jun-2023 15:10:36.084,8.00863266,-,134.6,14.5037738,1580.9,204.8,69.01960754,183.92156982,6135,2899.30438262,-5.46875,-10.15625,136.4,30.60296272,41.5686264,8
04-Jun-2023 15:10:36.184,8.00863266,-,134.6,14.5037738,1580.9,204.8,80.39215851,183.92156982,6135,2829.68626838,-5.46875,-10.15625,136.4,30.60296272,84.31372833,2
04-Jun-2023 15:10:36.284,8.00863266,-,134.6,14.5037738,1580.9,204.8,90.98039246,217.25489807,6135,2829.68626838,-5.46875,-12.5,136.4,34.95409486,70.98039246,4.5
04-Jun-2023 15:10:36.384,8.00863266,-,134.6,14.5037738,1580.9,204.8,90.98039246,218.43136597,6305,2823.88475886,-5.46875,-12.5,136.4,33.64875522,70.98039246,4.5
04-Jun-2023 15:10:36.484,8.00863266,-,134.6,14.5037738,1580.9,204.8,87.05882263,218.43136597,6305,2823.88475886,-5.46875,-11.71875,136.4,33.64875522,70.98039246,10.5
04-Jun-2023 15:10:36.585,8.00625038,-,134.6,14.5037738,1655.6,204.8,85.09803772,205.4901886,6514.5,2818.08324934,-5.46875,-13.28125,136.4,32.63349105,70.98039246,10.5
04-Jun-2023 15:10:36.684,8.00625038,-,134.6,14.5037738,1655.6,204.8,87.45098114,210.58824158,6677,2815.18249458,-5.46875,-13.28125,136.4,33.213642,83.52941132,14
04-Jun-2023 15:10:36.785,8.00625038,-,134.6,14.5037738,1655.6,204.8,87.45098114,211.37254333,6677,2820.9840041,-5.46875,-14.0625,136.4,33.50371748,83.92156982,14
04-Jun-2023 15:10:36.884,8.00625038,-,134.6,14.5037738,1655.6,204.8,87.45098114,210.98039246,6891.5,2836.93815528,-5.46875,-14.0625,136.4,33.64875522,83.92156982,13.5
04-Jun-2023 15:10:36.984,8.00625038,-,134.6,14.5037738,1655.6,204.8,87.05882263,210.19607544,6891.5,2815.18249458,-5.46875,-14.0625,136.4,33.64875522,83.92156982,12.5
04-Jun-2023 15:10:37.084,12.16902351,-,134.6,14.5037738,1655.6,204.8,86.27451324,210.19607544,6891.5,2854.34268384,-5.46875,-14.0625,136.4,33.50371748,83.92156982,12.5
04-Jun-2023 15:10:37.185,8.10394573,-,134.6,14.5037738,1655.6,204.8,88.62744904,213.72549438,7019,2522.20626382,-5.46875,-3.90625,136.4,33.79379295,83.92156982,4.5
04-Jun-2023 15:10:37.285,8.10394573,-,134.6,14.5037738,1655.6,204.8,87.05882263,210.19607544,7019,2522.20626382,-5.46875,-1.5625,136.4,34.22890617,83.92156982,11
04-Jun-2023 15:10:37.385,18.55734444,-,134.6,14.5037738,1655.6,204.8,87.05882263,204.70588684,6946,2861.59457074,-5.46875,-1.5625,136.4,32.77852879,83.92156982,11
04-Jun-2023 15:10:37.484,18.55734444,-,134.6,14.5037738,1655.6,204.8,87.05882263,204.70588684,6946,2861.59457074,-5.46875,-1.5625,136.4,32.77852879,83.92156982,11
04-Jun-2023 15:10:37.584,18.55734444,-,134.6,14.5037738,1655.6,204.8,21.56862831,204.70588684,6946,2861.59457074,-5.46875,-1.5625,136.4,32.77852879,83.92156982,11
04-Jun-2023 15:10:37.684,9.4764452,-,134.6,14.5037738,1655.6,204.8,21.56862831,18.03921509,6946,2805.02985292,-5.46875,0,136.4,32.77852879,36.47058868,-13.5
04-Jun-2023 15:10:37.784,9.4764452,-,134.6,14.5037738,1655.6,204.8,32.54901886,18.03921509,6387,2805.02985292,-5.46875,-4.6875,136.4,9.28241523,20.7843132,32
04-Jun-2023 15:10:37.885,8.5233202,-,134.6,14.5037738,1671.43997803,204.8,32.54901886,127.84313965,6387,2578.77098164,-5.46875,-4.6875,136.4,9.28241523,20.7843132,32
04-Jun-2023 15:10:37.984,8.5233202,-,134.6,14.5037738,1671.43997803,204.8,61.96078491,127.84313965,4755.5,2638.23645422,-5.46875,0.78125,136.4,23.78618903,76.86274719,6.5
04-Jun-2023 15:10:38.084,8.43515587,-,134.6,14.5037738,1671.43997803,204.8,76.86274719,161.96078491,4755.5,2543.96192452,-5.46875,0.78125,136.4,29.58769855,84.31372833,-1
04-Jun-2023 15:10:38.183,8.36843777,-,134.6,14.5037738,1671.43997803,204.8,81.96078491,184.70588684,4824.5,2543.96192452,-5.46875,0.78125,136.4,31.90830236,84.31372833,-1
04-Jun-2023 15:10:38.284,8.30410194,-,134.6,14.5037738,1671.43997803,204.8,81.96078491,191.76470947,4882,2632.4349447,-5.46875,0,136.4,32.63349105,84.31372833,-1
04-Jun-2023 15:10:38.384,8.21831989,-,134.6,14.5037738,1671.43997803,204.8,83.92156982,191.76470947,4882,2612.12966138,-5.46875,0,136.4,32.63349105,83.92156982,3.5
04-Jun-2023 15:10:38.484,8.21831989,-,134.6,14.5037738,1671.43997803,204.8,85.49019623,196.47058105,4882,2612.12966138,-5.46875,0,136.4,33.06860426,83.92156982,3.5
04-Jun-2023 15:10:38.584,8.18257809,-,134.6,14.5037738,1671.43997803,204.8,85.49019623,198.8235321,4998,2642.58758636,-5.46875,0,136.4,33.213642,83.92156982,4.5
04-Jun-2023 15:10:38.684,8.13492203,-,134.6,14.5037738,1671.43997803,204.8,86.27451324,200.39215088,4998,2644.03796374,-5.46875,0,136.4,33.213642,83.92156982,5
04-Jun-2023 15:10:38.784,8.13492203,-,134.6,14.5037738,1671.43997803,204.8,86.27451324,200.39215088,5124.5,2644.03796374,-5.46875,-3.90625,136.4,33.50371748,83.92156982,5
04-Jun-2023 15:10:38.884,8.10394573,-,134.6,14.5037738,1671.43997803,204.8,86.27451324,203.52941895,5124.5,2706.40419108,-5.46875,-3.90625,136.4,33.93883069,83.92156982,5
04-Jun-2023 15:10:38.984,8.10394573,-,134.6,14.5037738,1671.43997803,204.8,87.45098114,203.52941895,5164,2718.00721012,-5.46875,-5.46875,136.4,33.93883069,83.92156982,5
04-Jun-2023 15:10:39.085,8.08011723,-,134.6,14.5037738,1671.43997803,206.6,87.45098114,205.4901886,5312.5,2718.00721012,-5.46875,-5.46875,136.4,34.08386843,83.92156982,5
04-Jun-2023 15:10:39.185,8.08011723,-,132.8,14.5037738,1671.43997803,206.6,86.66666412,205.4901886,5312.5,2718.00721012,-5.46875,-7.8125,136.4,34.08386843,83.92156982,5
04-Jun-2023 15:10:39.286,8.08011723,-,132.8,14.35873606,1684.93997803,206.6,86.66666412,205.4901886,5312.5,2755.717022,-5.46875,-7.8125,136.4,34.08386843,83.92156982,5
04-Jun-2023 15:10:39.384,8.08011723,-,132.8,14.35873606,1684.93997803,206.6,86.66666412,205.4901886,5312.5,2755.717022,-5.46875,-7.8125,136.4,34.08386843,83.92156982,5
04-Jun-2023 15:10:39.485,8.04437542,-,132.8,14.35873606,1684.93997803,206.6,86.66666412,206.27450562,5312.5,2755.717022,-5.46875,-7.8125,136.4,34.37394391,83.92156982,5
04-Jun-2023 15:10:39.586,8.04437542,-,132.8,14.35873606,1684.93997803,206.6,85.88235474,206.27450562,5412,2755.717022,-5.46875,-8.59375,136.4,34.37394391,83.92156982,5
04-Jun-2023 15:10:39.684,8.03007793,-,132.8,14.35873606,1684.93997803,206.6,85.88235474,205.4901886,5412,2803.57947554,-5.46875,-8.59375,136.4,34.22890617,83.92156982,5
04-Jun-2023 15:10:39.784,8.03007793,-,132.8,14.35873606,1684.93997803,206.6,85.09803772,205.4901886,5488.5,2803.57947554,-5.46875,-9.375,136.4,34.22890617,83.92156982,6
04-Jun-2023 15:10:39.884,8.02531242,-,132.8,14.35873606,1684.93997803,206.6,85.09803772,205.4901886,5563.5,2823.88475886,-5.46875,-9.375,136.4,34.22890617,83.92156982,6
04-Jun-2023 15:10:39.984,8.02531242,-,132.8,14.35873606,1684.93997803,206.6,85.09803772,205.4901886,5563.5,2823.88475886,-5.46875,-10.15625,136.4,34.22890617,83.92156982,6
04-Jun-2023 15:10:40.084,8.01816368,-,132.8,14.35873606,1684.93997803,206.6,85.09803772,205.88235474,5649.5,2842.7396648,-5.46875,-10.15625,136.4,34.37394391,83.92156982,6
04-Jun-2023 15:10:40.184,8.01816368,-,132.8,14.35873606,1684.93997803,206.6,85.49019623,205.88235474,5649.5,2828.235891,-5.46875,-9.375,136.4,34.37394391,83.92156982,6
04-Jun-2023 15:10:40.284,8.0157814,-,132.8,14.35873606,1684.93997803,206.6,85.49019623,207.45097351,5649.5,2828.235891,-5.46875,-9.375,136.4,34.08386843,83.92156982,6
04-Jun-2023 15:10:40.384,8.0157814,-,132.8,14.35873606,1684.93997803,206.6,86.27451324,207.45097351,5649.5,2828.235891,-5.46875,-10.9375,136.4,34.08386843,83.92156982,6
04-Jun-2023 15:10:40.484,8.01339817,-,132.8,14.35873606,1684.93997803,206.6,86.27451324,208.23529053,5812.5,2839.83891004,-5.46875,-10.9375,136.4,33.93883069,83.92156982,6
04-Jun-2023 15:10:40.584,8.01101589,-,132.8,14.35873606,1684.93997803,206.6,86.27451324,208.62745667,5812.5,2828.235891,-5.46875,-11.71875,136.4,34.08386843,83.92156982,6
04-Jun-2023 15:10:40.684,8.01101589,-,132.8,14.5037738,1684.93997803,206.6,86.66666412,208.62745667,5812.5,2828.235891,-5.46875,-10.9375,138.2,34.08386843,83.92156982,6
04-Jun-2023 15:10:40.784,8.01101589,-,132.8,14.5037738,1672.16002197,206.6,87.05882263,209.80392456,5876.5,2829.68626838,-5.46875,-10.9375,138.2,34.08386843,83.92156982,6
04-Jun-2023 15:10:40.884,8.00863266,-,132.8,14.5037738,1672.16002197,206.6,87.05882263,211.76470947,5989,2841.28928742,-5.46875,-10.9375,138.2,33.93883069,83.92156982,6
04-Jun-2023 15:10:40.984,8.00863266,-,132.8,14.5037738,1672.16002197,206.6,87.84313965,211.76470947,5989,2854.34268384,-5.46875,-12.5,138.2,33.93883069,83.92156982,6.5
04-Jun-2023 15:10:41.085,8.00863266,-,132.8,14.5037738,1672.16002197,206.6,87.84313965,212.15686035,5989,2854.34268384,-5.46875,-13.28125,138.2,33.93883069,83.92156982,6.5
04-Jun-2023 15:10:41.184,8.00863266,-,132.8,14.5037738,1672.16002197,206.6,87.84313965,212.15686035,5989,2854.34268384,-5.46875,-13.28125,138.2,33.93883069,83.92156982,7.5
04-Jun-2023 15:10:41.283,8.00863266,-,132.8,14.5037738,1672.16002197,206.6,87.84313965,212.15686035,5989,2854.34268384,-5.46875,-13.28125,138.2,33.93883069,83.92156982,7.5
04-Jun-2023 15:10:41.384,8.00625038,-,132.8,14.5037738,1672.16002197,206.6,87.84313965,217.64706421,5989,2838.38853266,-5.46875,-13.28125,138.2,35.24417033,83.92156982,7.5
04-Jun-2023 15:10:41.485,8.00625038,-,132.8,14.5037738,1672.16002197,206.6,91.37255096,217.64706421,6117.5,2858.69381598,-5.46875,-14.0625,138.2,35.24417033,83.92156982,8
04-Jun-2023 15:10:41.584,8.00625038,-,132.8,14.5037738,1672.16002197,206.6,87.45098114,219.21568298,6202,2858.69381598,-5.46875,-12.5,138.2,33.93883069,83.92156982,8
04-Jun-2023 15:10:41.684,8.00625038,-,132.8,14.5037738,1672.16002197,206.6,87.45098114,207.05882263,6202,2861.59457074,-5.46875,-12.5,138.2,32.77852879,55.68627548,8
04-Jun-2023 15:10:41.785,8.00625038,-,132.8,14.5037738,1672.16002197,206.6,85.09803772,207.05882263,6260,2861.59457074,-5.46875,-13.28125,138.2,32.77852879,73.72548676,9
04-Jun-2023 15:10:41.884,8.00625038,-,132.8,14.5037738,1672.16002197,208.4,85.09803772,203.92156982,6345,2855.79306122,-5.46875,-13.28125,138.2,33.64875522,73.72548676,9
04-Jun-2023 15:10:41.985,8.00625038,-,132.8,14.5037738,1672.16002197,208.4,86.27451324,203.92156982,6345,2855.79306122,-5.46875,-14.0625,140,33.64875522,84.70587921,9
04-Jun-2023 15:10:42.084,8.00625038,-,132.8,14.5037738,1654.16002197,208.4,86.27451324,203.92156982,6345,2845.64041956,-5.46875,-14.0625,140,33.64875522,84.70587921,9
04-Jun-2023 15:10:42.184,8.00625038,-,132.8,14.5037738,1654.16002197,208.4,86.27451324,208.62745667,6413,2845.64041956,-5.46875,-12.5,140,33.06860426,84.70587921,9
04-Jun-2023 15:10:42.284,8.00625038,-,132.8,14.5037738,1654.16002197,208.4,86.27451324,207.45097351,6413,2848.54117432,-5.46875,-12.5,140,32.92356653,83.92156982,9
04-Jun-2023 15:10:42.385,8.00625038,-,132.8,14.5037738,1654.16002197,208.4,85.88235474,207.45097351,6413,2842.7396648,-5.46875,-14.0625,140,32.92356653,83.92156982,10.5
04-Jun-2023 15:10:42.484,8.00625038,-,132.8,14.5037738,1654.16002197,208.4,86.27451324,207.84313965,6621,2842.7396648,-5.46875,-13.28125,140,33.213642,83.92156982,10.5
04-Jun-2023 15:10:42.584,8.00625038,-,132.8,14.5037738,1654.16002197,208.4,86.27451324,209.01960754,6544.5,2858.69381598,-5.46875,-13.28125,140,33.213642,83.92156982,10.5
04-Jun-2023 15:10:42.684,8.00625038,-,132.8,14.5037738,1654.16002197,208.4,86.27451324,209.01960754,6544.5,2860.14419336,-5.46875,-14.0625,140,32.77852879,83.92156982,10.5
04-Jun-2023 15:10:42.784,8.00625038,-,132.8,14.5037738,1654.16002197,208.4,86.27451324,209.01960754,6624,2799.2283434,-5.46875,-14.0625,140,32.77852879,83.92156982,10.5
04-Jun-2023 15:10:42.884,8.00625038,-,132.8,14.5037738,1654.16002197,208.4,85.49019623,206.66667175,6624,2799.2283434,-5.46875,-14.84375,140,32.77852879,83.92156982,10.5
04-Jun-2023 15:10:42.984,8.00625038,-,132.8,14.5037738,1654.16002197,208.4,85.49019623,211.76470947,6624,2820.9840041,-5.46875,-14.84375,140,32.77852879,83.92156982,10.5
04-Jun-2023 15:10:43.084,8.00625038,-,132.8,14.5037738,1654.16002197,208.4,85.49019623,211.76470947,6663.5,2820.9840041,-5.46875,-14.84375,140,34.08386843,83.92156982,10.5
04-Jun-2023 15:10:43.185,8.00625038,-,132.8,14.5037738,1654.16002197,208.4,85.09803772,211.76470947,6663.5,2820.9840041,-5.46875,-14.84375,140,34.08386843,83.92156982,10.5
04-Jun-2023 15:10:43.284,8.00625038,-,132.8,14.5037738,1654.16002197,208.4,85.09803772,203.92156982,6798,2847.09079694,-5.46875,-14.0625,140,32.77852879,83.92156982,10.5
04-Jun-2023 15:10:43.384,8.00625038,-,132.8,14.5037738,1654.16002197,208.4,85.09803772,203.92156982,6798,2847.09079694,-5.46875,-14.84375,140,32.77852879,83.92156982,10.5
04-Jun-2023 15:10:43.485,8.00625038,-,132.8,14.5037738,1634,208.4,85.88235474,209.01960754,6857,2839.83891004,-5.46875,-14.84375,140,33.64875522,83.92156982,10.5
04-Jun-2023 15:10:43.584,8.00625038,-,132.8,14.5037738,1634,208.4,85.88235474,205.09803772,6857,2839.83891004,-5.46875,-14.84375,140,32.48845331,83.92156982,9.5